Regional Weather Roundup
Issued by NWS Upton, NY

Current Version | Previous Version | Graphics & Text | Print | Product List | Glossary Off
Versions: 1 2 3 4 5 6 7 8 9 10 11 12 13 14 15 16 17 18 19 20 21 22 23 24 25 26 27 28 29 30 31 32 33 34 35 36 37 38 39 40 41 42 43 44 45 46 47 48 49 50

000
ASUS41 KOKX 261305
RWROKX

REGIONAL WEATHER ROUNDUP
NATIONAL WEATHER SERVICE NEW YORK NY
800 AM EST MON JAN 26 2015

NOTE: "FAIR" INDICATES FEW OR NO CLOUDS BELOW 12,000 FEET WITH NO
SIGNIFICANT WEATHER AND/OR OBSTRUCTIONS TO VISIBILITY.

NYZ071-072-176-178-NJZ106-104-261400-
NEW YORK CITY METRO AREA


CITY           SKY/WX    TMP DP  RH WIND       PRES   REMARKS
CENTRAL PARK   CLOUDY    25  14  63 E13G23    30.02S HAZE    WCI  14
LAGUARDIA APRT FLURRIES  24  16  71 NE21      30.01S WCI   9
KENNEDY INTL   CLOUDY    27  13  55 NE15      30.02S WCI  15
NEWARK/LIBERTY FLURRIES  24  16  71 NE14G21   30.00F WCI  12
BRNX BOT. GARD   N/A    N/A N/A N/A NE6       30.02S
TETERBORO      LGT SNOW  21  12  68 NE8       30.01S WCI  12
$$

NYZ177-179-078>081-261400-
LONG ISLAND NEW YORK

CITY           SKY/WX    TMP DP  RH WIND       PRES   REMARKS
FARMINGDALE    LGT SNOW  24  17  74 NE10      30.01R WCI  14
ISLIP          LGT SNOW  24  16  71 NE12      30.00S WCI  13
SHIRLEY        LGT SNOW  25  15  66 VRB7      30.02F WCI  17
WESTHAMPTON    LGT SNOW  26  15  63 NE17G24   30.03F WCI  13
MONTAUK POINT    N/A     26  15  63 NE9G24    30.05F WCI  17
$$

NYZ052-065-067-261400-
HUDSON VALLEY

CITY           SKY/WX    TMP DP  RH WIND       PRES   REMARKS
WHITE PLAINS   CLOUDY    20   6  55 E9        29.99S WCI   9
NEWBURGH       CLOUDY    14   3  62 E9        30.03S WCI   2
MONTGOMERY     CLOUDY    15   3  59 NE14      30.02S WCI   0
POUGHKEEPSIE   CLOUDY    16   3  56 N8        30.06S WCI   5
ALBANY         CLOUDY    10  -2  58 N9        30.12R WCI  -3
$$

NJZ001-105-106-008-010-013-015-019>022-104-261400-
NEW JERSEY

CITY           SKY/WX    TMP DP  RH WIND       PRES   REMARKS
NEWARK/LIBERTY FLURRIES  24  16  71 NE14G21   30.00F WCI  12
TETERBORO      LGT SNOW  21  12  68 NE8       30.01S WCI  12
CALDWELL       LGT SNOW  19  12  74 NE10      30.01S WCI   7
MORRISTOWN     LGT SNOW  19  14  79 NE7       30.00F WCI  10
SOMERVILLE     LGT SNOW  20  14  77 NE8       29.97S WCI  10
SUSSEX         FLURRIES  14   6  70 NE9       29.99S WCI   2
ANDOVER          N/A     15  10  80 VRB7      29.97S WCI   5
TRENTON        CLOUDY    24  16  71 NE13      29.94S WCI  12
MILLVILLE      LGT SNOW  31  28  89 NE10G20   29.88S FOG     WCI  22
ATLANTIC CITY  LGT SNOW  32  28  85 NE17G26   29.89S FOG     WCI  21
WRIGHTSTOWN    LGT SNOW  27  24  88 NE14G22   29.91S FOG     WCI  15
TOMS RIVER     CLOUDY    28  27  93 NE13      29.94F WCI  18
BELMAR         CLOUDY    27  19  74 NE12G23   29.95S WCI  16
$$

PAZ047>061-062-071-261400-
EASTERN PENNSYLVANIA

CITY           SKY/WX    TMP DP  RH WIND       PRES   REMARKS
PHILADELPHIA   LGT SNOW  28  21  75 NE14G22   29.94R WCI  17
ALLENTOWN      CLOUDY    19  13  77 NE13      29.95R WCI   6
SCRANTON       CLOUDY    19  10  68 VRB6G17   29.89S WCI  11
$$

CTZ002-004>006-009-010-012-RIZ004-006-007-MAZ004-011-015-261400-
SOUTHERN NEW ENGLAND
 IN CT

CITY           SKY/WX    TMP DP  RH WIND       PRES   REMARKS
BRADLEY INTL   CLOUDY    14   1  56 N10       30.10R WCI   1
HARTFORD       CLOUDY    16   3  56 N10       30.11R WCI   4
DANBURY        CLOUDY    18   0  45 NE10      30.03S WCI   6
WTRBRY/OXFORD  CLOUDY    16  -4  41 E12G20    30.00S WCI   3
BRIDGEPORT     CLOUDY    21   7  54 NE15      30.05S WCI   8
MERIDEN        CLOUDY    18   3  52 N10       30.08R WCI   6
NEW HAVEN      CLOUDY    20   8  60 NE10      30.05S WCI   9
CHESTER        FAIR      21   5  49 NE6       30.05R WCI  14
GROTON         CLOUDY    19   2  47 NE12      30.07S WCI   7
WILLIMANTIC    CLOUDY    16  -1  47 NE13      30.10R WCI   2

 IN RI

CITY           SKY/WX    TMP DP  RH WIND       PRES   REMARKS
PROVIDENCE     CLOUDY    16   3  56 N9        30.12R WCI   4
BLOCK ISLAND   CLOUDY    25  14  63 NE15G23   30.04S WCI  12
WESTERLY       CLOUDY    19   4  51 NE9       30.08F WCI   8

 IN MA

CITY           SKY/WX    TMP DP  RH WIND       PRES   REMARKS
BOSTON         CLOUDY    12   0  58 NW10      30.15S WCI  -1
WORCESTER      CLOUDY     7  -4  60 NE10      30.05R WCI  -8
WESTFIELD      CLOUDY    12  -2  53 N8        30.11R WCI   0
PROVINCETOWN   CLOUDY    27  18  69 NE12G17   30.12R WCI  16
NANTUCKET      CLOUDY    32  21  64 NE12      30.07R WCI  23
$$

ANZ330-335-338-340-345-350-353-355-261400-
COASTAL MARINE OBSERVATIONS


STATION/POSITION TIME  SKY/WX   TEMP    WIND        PRES    VSBY  WAVE
                                AIR SEA DIR/SP/G                  HT/PER
                 (UTC)          (F)     (DEG/KT/KT) (MB)    (MI)  (FT/S)
NY HARB ENTRANCE 1300            28 42   50/ 23/ 27 1014.5          5/ 5
4S FIRE IS       1300               39                N/A           5/ 5
20S FIRE ISLAND  1200               40              1014.6          6/ 5
23SW MTP         1300                                 N/A           5/ 5
HUDSON CANYON    NOT AVBL
EXECUTION ROCKS  1300            25 35   50/ 21/ 27   N/A
WESTERN LI SOUND 1300            24      60/ 19/ 23   N/A           3/ 4
CENTRAL LI SOUND 1200            24 36   60/ 16/ 21   N/A           2/ 4
EASTERN LI SOUND NOT AVBL
ROBBINS REEF     1300            25      60/ 18/ 21 1014.4
$$


>>>>>>>>>>>>>>>>>>>>>>>>>>>> KEY <<<<<<<<<<<<<<<<<<<<<<<<<<<
>                                                          <
>     SKY/WX - SKY CONDITION/PRESENT WEATHER               <
>     TMP    - TEMPERATURE IN FAHRENHEIT                   <
>     DP     - DEWPOINT IN FAHRENHEIT                      <
>     RH     - RELATIVE HUMIDITY IN PERCENT                <
>     WIND   - DIRECTION AND SPEED IN MPH                  <
>     PRES   - MEAN SEA LEVEL PRESSURE IN INCHES OF HG     <
>     WCI    - WIND CHILL INDEX                            <
>     VSB    - VISIBILITY IN MILES                         <
>     HX     - HEAT INDEX                                  <
>     TC     - TEMPERATURE IN CELSIUS                      <
>     VRB    - VARIABLE WIND DIRECTION                     <
>                                                          <
>>>>>>>>>>>>>>>>>>>>>>>>>>>> KEY <<<<<<<<<<<<<<<<<<<<<<<<<<<




USA.gov is the U.S. government's official web portal to all federal, state and local government web resources and services.